Wind_Speed
75 69 71 72 69 66 64 65 60 58 57 57 57 54 53 51 49 47 48 50 53 55 56 57 60 64 67 71 73 74 77 80 83 86 88 89 89 88 87 86 88 89 91 92
70 72 69 66 63 62 62 61 60 55 53 53 55 56 57 49 50 52 54 56 57 59 61 65 67 70 74 75 75 79 82 85 89 90 89 89 88 86 87 88 89 91 91 93
71 71 70 66 64 64 64 60 60 56 58 50 52 54 54 54 55 56 56 58 60 63 66 70 73 75 76 79 81 83 86 90 90 90 89 85 86 86 87 88 89 91 96 99
66 66 59 57 57 58 57 55 54 55 55 49 51 53 56 53 56 59 61 64 67 69 71 73 75 78 81 82 84 88 90 90 89 85 84 85 86 85 85 89 92 97 97 96
56 56 55 57 57 56 56 56 55 55 55 49 55 57 55 57 60 62 64 67 69 70 73 76 80 81 83 87 89 90 87 82 81 82 83 83 83 86 90 93 95 95 95 99
55 59 58 54 55 56 56 56 57 57 56 56 56 55 60 60 61 64 66 69 72 76 79 81 82 84 88 89 86 79 79 79 80 81 81 84 87 90 92 93 93 96 100 106
53 57 59 59 57 58 59 60 59 59 58 60 60 62 63 65 67 69 72 75 77 79 81 84 85 85 79 74 75 76 77 77 78 80 84 87 89 90 91 92 97 103 108 113
48 54 58 59 61 61 61 60 61 62 62 63 65 66 67 69 71 73 75 77 79 82 83 79 74 71 72 74 74 75 75 76 80 84 87 87 88 89 93 98 104 110 115 120
40 45 49 55 58 60 62 63 64 65 66 66 67 69 71 73 75 75 78 79 74 71 67 66 68 69 69 69 72 74 77 81 84 83 81 82 87 93 99 106 112 118 122 125
36 37 41 46 51 55 57 59 60 62 64 65 67 69 70 71 69 66 61 59 61 63 64 63 65 68 70 71 74 77 80 80 77 78 83 88 95 101 107 113 118 123 127 132
31 33 35 37 40 43 46 49 50 51 52 53 54 52 52 52 53 55 55 55 55 58 62 64 66 69 70 73 76 73 69 73 78 83 89 96 102 109 115 120 124 129 133 133
28 29 30 31 32 34 36 37 37 38 40 42 45 48 50 50 49 50 52 55 59 62 65 67 68 70 73 66 64 68 72 78 84 90 96 102 108 114 120 126 131 135 133 125
27 29 30 29 30 30 30 31 32 33 35 37 40 43 46 49 52 54 57 60 63 65 64 69 66 62 59 64 69 74 79 85 91 97 103 109 113 118 123 129 132 127 120 114
27 27 27 27 29 28 29 31 34 36 40 44 47 50 53 56 58 60 59 59 64 65 60 57 55 60 64 69 74 80 86 92 98 104 109 113 119 125 127 124 116 113 109 103
27 27 27 28 31 32 34 37 41 44 46 48 52 55 58 61 61 61 61 58 54 51 51 56 60 65 70 76 81 87 93 99 104 109 114 120 124 124 118 115 108 102 98 96
34 35 36 38 40 42 44 46 48 51 53 54 54 55 55 52 50 48 46 45 48 52 57 61 66 71 77 82 88 94 100 104 109 115 120 122 119 114 110 104 99 96 94 88
41 42 44 45 46 48 49 50 50 50 48 47 47 43 41 39 39 41 44 49 54 58 63 67 73 78 83 89 95 99 105 111 116 119 119 116 112 106 101 98 94 92 88 81
49 50 52 52 50 48 47 47 45 45 45 42 39 37 38 41 44 47 51 55 60 64 69 74 79 85 90 95 100 105 112 116 118 116 112 109 103 99 95 92 90 84 80 76
51 51 48 46 46 45 44 42 42 39 35 35 38 41 43 46 49 53 58 62 67 71 76 81 86 92 96 101 107 113 116 116 111 110 104 100 98 94 91 88 82 77 74 70
47 45 43 39 40 40 38 36 35 36 38 41 43 46 49 53 57 61 65 70 74 79 84 89 93 98 102 108 113 117 114 110 107 101 98 95 92 90 86 80 75 73 69 64
36 36 35 34 34 35 36 37 39 41 44 47 50 53 57 60 64 69 73 79 83 86 91 95 99 104 109 114 116 112 108 104 99 96 94 90 88 84 78 74 71 67 63 57
34 35 37 38 39 39 40 42 45 48 51 54 57 60 64 68 72 77 81 86 89 93 97 101 106 111 114 114 109 104 101 96 95 92 88 86 81 75 71 68 65 61 55 49
40 40 41 42 43 45 47 50 52 56 59 61 64 68 71 76 80 84 88 91 95 99 104 109 112 113 111 106 103 99 95 93 90 86 84 78 72 68 66 63 59 53 47 41
47 48 49 50 51 53 55 58 60 63 66 69 72 75 79 83 87 90 93 97 102 106 110 113 112 107 103 101 97 94 91 88 85 82 76 70 65 62 60 57 50 44 38 34
55 56 57 57 59 62 63 66 68 71 73 76 79 82 86 89 93 96 100 104 108 112 113 110 105 102 98 94 91 88 84 81 78 72 67 63 60 57 54 47 41 36 31 26
62 63 64 66 67 69 71 74 76 78 80 83 86 89 93 96 99 104 106 110 111 111 107 101 99 95 92 89 86 82 79 74 69 64 60 57 55 51 44 38 33 28 24 20
70 71 72 73 75 77 79 81 83 85 88 91 94 97 100 103 107 109 110 110 107 103 100 97 92 89 86 83 80 76 71 65 61 58 55 53 49 41 35 31 26 21 18 13
Wind_Direction
179 181 177 178 182 186 192 201 204 206 213 215 218 220 225 229 235 241 246 251 256 261 267 273 279 283 287 290 292 295 297 298 300 301 301 301 301 300 300 300 300 300 300 299
179 177 181 184 187 191 199 204 209 212 216 221 220 222 230 236 243 247 251 256 262 267 272 277 281 284 287 290 293 295 297 298 299 300 299 299 299 299 300 300 300 300 299 299
179 182 185 187 190 196 203 207 212 217 222 221 226 228 236 241 245 251 257 263 268 273 276 279 282 285 288 290 293 295 295 297 298 297 298 298 299 300 300 300 300 299 300 301
184 187 189 193 198 204 209 214 220 224 228 227 234 239 241 247 253 256 261 266 270 273 277 281 283 286 289 291 292 294 296 295 295 297 297 299 300 300 300 300 301 301 302 302
194 194 198 201 205 211 214 218 224 230 235 237 241 246 250 253 258 263 266 270 274 277 280 281 283 286 289 291 293 293 293 293 295 297 297 298 298 300 301 301 302 302 302 303
202 203 206 209 212 217 223 225 229 235 239 243 246 251 255 257 261 265 269 272 275 277 279 282 284 287 289 291 292 292 292 295 296 297 297 298 300 301 301 302 302 302 304 306
211 213 215 217 218 222 226 231 234 238 243 248 251 254 259 261 264 268 270 273 275 279 282 284 286 288 288 287 289 292 294 296 297 299 301 301 300 301 301 302 304 305 306 309
220 220 222 224 226 229 232 235 239 242 246 250 253 257 261 266 268 271 273 277 279 281 284 284 284 286 286 290 292 294 296 297 300 301 301 300 300 301 303 305 306 307 310 310
223 227 230 232 233 236 239 241 243 247 250 253 257 260 263 265 269 272 274 278 280 280 281 282 284 288 291 293 295 296 298 299 301 301 301 301 302 304 306 307 309 310 310 310
217 219 223 229 233 237 240 243 246 249 252 255 258 261 265 268 270 272 274 274 276 279 282 285 289 291 293 294 296 297 298 299 299 301 302 304 306 307 308 309 310 310 310 310
218 220 223 227 230 234 238 243 246 249 252 256 259 261 263 265 266 269 273 277 280 284 286 288 291 293 294 296 297 298 298 300 300 302 305 306 308 309 309 310 310 310 310 312
212 214 217 223 226 230 235 239 242 246 250 253 256 259 263 267 271 275 278 280 282 285 289 291 293 294 297 296 296 298 299 301 303 306 306 308 309 309 310 311 311 311 312 313
217 223 227 231 236 239 243 246 250 254 258 261 263 266 268 271 273 276 278 281 284 287 288 292 295 294 294 295 297 300 302 305 306 307 309 309 309 311 311 310 311 311 312 314
219 224 232 239 243 247 251 253 257 260 263 263 266 269 272 274 276 278 281 283 287 289 291 292 292 293 295 298 300 303 305 306 308 309 309 310 311 311 311 311 311 313 314 316
233 236 239 246 251 254 258 262 263 264 267 271 273 275 276 277 280 282 284 285 286 288 290 290 293 296 299 301 304 306 307 309 309 309 311 312 312 311 312 313 314 315 317 319
243 247 250 253 257 261 263 266 270 273 276 276 275 276 279 281 280 281 283 285 287 288 291 295 297 299 302 305 306 307 308 309 310 311 312 313 312 313 314 315 317 318 319 320
256 257 259 262 267 268 271 274 273 274 276 277 277 280 283 282 282 283 285 287 290 292 294 296 300 303 305 306 307 308 310 311 312 313 314 313 313 315 316 317 319 320 319 320
263 264 265 267 268 267 268 271 272 272 271 274 277 277 278 280 282 285 288 290 292 295 298 301 303 305 306 307 309 310 312 313 314 314 314 314 315 315 316 318 320 320 320 321
259 259 261 261 262 266 267 265 264 264 267 271 273 276 279 282 286 289 291 295 297 299 302 304 305 306 308 309 310 312 313 314 315 315 315 315 316 316 318 319 320 319 321 323
258 259 263 258 257 256 255 256 260 266 270 272 276 280 284 287 291 294 296 297 300 302 304 305 307 307 308 310 312 314 315 315 316 314 315 315 316 318 319 321 320 321 323 325
252 250 247 247 250 255 259 263 267 270 274 279 283 286 290 293 295 297 298 300 302 303 305 306 306 307 310 312 314 314 315 315 315 316 315 316 317 319 321 320 321 322 325 323
242 245 248 251 255 260 264 269 273 277 281 284 288 291 293 295 296 297 299 301 303 304 304 305 308 310 312 313 314 315 315 315 316 316 316 317 318 320 320 320 321 324 323 323
248 252 255 260 263 267 270 274 278 281 284 288 291 292 293 294 296 298 299 300 301 303 306 309 310 311 313 313 314 314 314 315 316 315 316 317 320 321 318 321 323 322 321 323
258 260 263 266 270 273 276 279 282 285 287 288 290 291 293 294 296 298 299 301 304 306 308 309 311 312 313 314 314 314 315 316 315 315 316 319 321 319 319 322 321 320 322 325
261 265 268 271 273 275 278 279 281 282 285 287 289 291 293 295 297 299 300 303 305 307 308 310 311 312 313 313 314 315 315 315 315 315 318 320 319 320 321 320 318 320 323 327
263 266 267 269 271 273 276 279 281 284 286 288 290 291 294 296 297 299 302 304 306 307 310 311 312 313 313 314 314 314 315 315 314 317 319 319 318 320 318 317 320 323 327 329
264 267 269 271 274 276 278 281 283 285 287 289 291 293 295 297 299 301 304 306 308 309 310 311 312 313 313 313 314 314 313 314 316 318 318 318 319 318 318 319 324 326 326 332
Height
10452 10468 10481 10491 10502 10516 10531 10539 10553 10564 10572 10580 10588 10596 10603 10608 10614 10617 10619 10620 10620 10619 10620 10618 10615 10612 10608 10603 10598 10592 10586 10579 10571 10564 10556 10545 10536 10526 10516 10506 10496 10485 10474 10463
10460 10472 10486 10497 10510 10523 10532 10541 10549 10562 10570 10576 10586 10593 10596 10605 10606 10607 10608 10608 10609 10609 10609 10605 10602 10599 10593 10588 10584 10576 10570 10563 10554 10546 10537 10527 10517 10508 10497 10486 10475 10464 10452 10441
10466 10476 10485 10498 10510 10518 10526 10539 10546 10556 10558 10575 10582 10589 10592 10594 10595 10596 10597 10597 10597 10597 10596 10591 10588 10583 10578 10573 10568 10561 10553 10545 10535 10526 10517 10508 10499 10489 10478 10467 10455 10444 10431 10418
10478 10487 10498 10507 10514 10522 10531 10540 10546 10552 10557 10570 10576 10579 10579 10586 10586 10586 10588 10586 10586 10584 10581 10578 10573 10568 10563 10557 10550 10543 10536 10526 10517 10508 10499 10490 10480 10470 10460 10448 10435 10423 10410 10396
10487 10495 10501 10508 10516 10522 10529 10535 10541 10546 10552 10567 10564 10565 10574 10574 10574 10575 10576 10573 10572 10569 10566 10562 10557 10552 10546 10540 10533 10525 10517 10508 10500 10492 10482 10472 10461 10451 10439 10428 10414 10401 10387 10375
10487 10493 10499 10508 10515 10520 10524 10530 10536 10540 10547 10552 10557 10561 10558 10562 10564 10563 10562 10561 10558 10554 10550 10546 10542 10536 10529 10523 10515 10507 10500 10493 10484 10474 10465 10454 10442 10432 10419 10407 10394 10381 10367 10350
10483 10490 10496 10503 10510 10515 10518 10523 10530 10535 10540 10542 10546 10547 10548 10550 10551 10549 10548 10545 10542 10538 10533 10529 10524 10519 10512 10505 10499 10492 10484 10476 10467 10457 10447 10436 10424 10412 10399 10387 10372 10359 10345 10328
10476 10484 10491 10498 10504 10509 10514 10520 10524 10527 10531 10533 10535 10535 10535 10535 10535 10534 10532 10529 10525 10521 10517 10513 10508 10502 10496 10490 10483 10476 10468 10459 10450 10440 10429 10418 10405 10392 10378 10365 10351 10333 10318 10302
10471 10477 10485 10491 10498 10502 10506 10511 10513 10516 10519 10522 10523 10523 10523 10522 10521 10520 10517 10514 10511 10506 10502 10498 10493 10488 10482 10475 10468 10460 10452 10443 10432 10421 10409 10398 10387 10374 10358 10341 10325 10308 10290 10274
10464 10470 10475 10480 10485 10489 10493 10497 10502 10505 10507 10508 10510 10510 10510 10509 10507 10505 10503 10500 10496 10492 10488 10484 10479 10474 10467 10460 10452 10445 10436 10426 10415 10405 10393 10380 10366 10350 10333 10316 10300 10281 10263 10244
10461 10466 10471 10474 10478 10481 10485 10487 10491 10494 10496 10497 10498 10497 10497 10496 10494 10492 10491 10488 10484 10479 10474 10471 10465 10459 10453 10445 10437 10428 10419 10410 10399 10388 10376 10361 10343 10326 10309 10289 10270 10252 10231 10213
10458 10462 10466 10469 10473 10475 10478 10480 10482 10484 10485 10486 10486 10486 10485 10483 10482 10480 10478 10475 10471 10467 10462 10457 10451 10444 10437 10429 10421 10413 10404 10394 10382 10369 10354 10339 10325 10308 10283 10262 10240 10217 10195 10180
10453 10456 10460 10463 10466 10468 10470 10472 10474 10475 10476 10476 10476 10475 10473 10472 10470 10468 10464 10461 10458 10453 10448 10443 10436 10429 10421 10414 10406 10397 10387 10376 10362 10347 10333 10318 10301 10284 10270 10244 10215 10192 10174 10158
10447 10451 10455 10457 10459 10461 10463 10464 10466 10466 10466 10465 10465 10464 10462 10460 10457 10454 10451 10448 10443 10438 10433 10427 10421 10414 10407 10399 10391 10381 10369 10355 10341 10326 10311 10294 10277 10257 10236 10217 10200 10178 10154 10137
10443 10445 10448 10450 10452 10453 10454 10455 10455 10455 10455 10455 10453 10451 10448 10445 10443 10440 10437 10433 10428 10424 10419 10413 10407 10400 10393 10384 10373 10361 10347 10335 10320 10302 10285 10268 10248 10227 10207 10187 10169 10154 10138 10119
10438 10439 10440 10442 10443 10444 10445 10445 10445 10444 10443 10441 10438 10436 10433 10431 10428 10426 10423 10419 10415 10410 10405 10399 10392 10385 10376 10365 10353 10341 10327 10313 10298 10280 10261 10241 10219 10200 10182 10163 10147 10132 10116 10104
10429 10431 10430 10431 10433 10433 10433 10432 10432 10430 10428 10426 10424 10422 10421 10418 10416 10413 10411 10407 10402 10397 10391 10384 10376 10367 10357 10346 10333 10320 10306 10289 10272 10253 10234 10213 10194 10176 10159 10144 10129 10112 10097 10084
10417 10419 10419 10420 10420 10420 10420 10420 10419 10417 10416 10414 10414 10412 10410 10407 10405 10402 10399 10394 10388 10382 10374 10367 10358 10348 10337 10325 10312 10298 10282 10264 10246 10227 10207 10188 10171 10154 10140 10126 10111 10096 10081 10068
10406 10406 10407 10408 10408 10408 10408 10407 10407 10406 10406 10405 10403 10401 10399 10397 10394 10390 10384 10378 10371 10365 10356 10348 10338 10327 10316 10303 10289 10274 10256 10239 10220 10202 10184 10167 10151 10135 10121 10108 10094 10080 10068 10057
10390 10392 10393 10395 10395 10396 10396 10396 10397 10397 10395 10394 10392 10390 10388 10385 10379 10373 10367 10360 10354 10346 10337 10328 10317 10305 10293 10279 10264 10248 10230 10213 10197 10180 10163 10148 10132 10118 10104 10090 10077 10065 10055 10045
10380 10381 10383 10384 10386 10387 10387 10387 10387 10385 10384 10382 10380 10377 10373 10368 10362 10356 10349 10342 10336 10327 10318 10307 10295 10284 10270 10255 10239 10222 10207 10191 10174 10158 10143 10128 10115 10101 10088 10075 10064 10054 10045 10035
10372 10373 10375 10376 10377 10377 10377 10376 10375 10373 10371 10368 10366 10362 10356 10351 10345 10338 10331 10323 10315 10306 10296 10285 10273 10260 10245 10230 10214 10200 10184 10169 10154 10138 10123 10111 10099 10087 10074 10063 10054 10044 10034 10025
10363 10364 10365 10366 10366 10365 10365 10363 10362 10359 10356 10353 10350 10345 10339 10333 10326 10319 10312 10305 10294 10283 10273 10262 10249 10235 10221 10206 10192 10177 10162 10148 10135 10120 10107 10095 10084 10074 10062 10053 10044 10034 10025 10017
10351 10352 10352 10352 10352 10352 10350 10348 10346 10342 10339 10336 10332 10327 10321 10314 10307 10299 10289 10280 10270 10260 10249 10237 10224 10211 10197 10183 10169 10155 10141 10129 10116 10103 10091 10081 10072 10062 10052 10043 10035 10025 10018 10012
10338 10338 10339 10339 10338 10336 10334 10332 10328 10325 10322 10319 10313 10307 10300 10292 10285 10277 10267 10259 10249 10237 10224 10213 10200 10188 10174 10161 10148 10135 10123 10111 10099 10088 10077 10068 10059 10051 10042 10035 10026 10019 10013 10009
10324 10324 10324 10323 10321 10320 10318 10315 10312 10308 10304 10299 10293 10286 10279 10272 10264 10255 10246 10236 10224 10212 10201 10189 10177 10165 10152 10139 10127 10115 10105 10094 10083 10074 10066 10058 10049 10042 10034 10026 10019 10014 10010 10007
10307 10307 10306 10305 10304 10302 10298 10295 10292 10287 10282 10276 10270 10264 10257 10249 10240 10232 10222 10210 10199 10188 10177 10166 10154 10143 10131 10120 10108 10099 10088 10079 10071 10062 10054 10046 10040 10033 10026 10019 10014 10011 10008 10005